Location: Gleizolles
(44.4833°N, 6.7667°E)
Time: 16:07:33
(UTC+00:00)

Altair - Pass Details

Date: 03 July 2024
Orbit: 1502 x 1681 km, 47.2° (Epoch: 13 July)

Event Time Altitude Azimuth Distance (km) Brightness Sun altitude
Rises 02:56:02 0° 288° (WNW) 4,652 9.8 -8.7°
Reaches altitude 10° 02:59:02 10° 288° (WNW) 3,681 9.2 -8.4°
Maximum altitude 03:08:21 87° 202° (SSW) 1,555 7.6 -7.2°
Drops below altitude 10° 03:18:00 10° 113° (ESE) 3,800 9.9 -5.9°
Sets 03:21:08 0° 114° (ESE) 4,808 10.5 -5.4°
